Location: Casteau
(50.5142°N, 4.0161°E)
Time: 07:14:15
(UTC+00:00)

Transit 2A - Pass Details

Date: 02 August 2021
Orbit: 594 x 964 km, 66.7° (Epoch: 24 September)

Event Time Altitude Azimuth Distance (km) Brightness Sun altitude
Rises 11:35:54 0° 321° (NW) 3,102 8.9 57.0°
Reaches altitude 10° 11:38:49 10° 339° (NNW) 2,250 8.2 57.0°
Maximum altitude 11:42:31 19° 25° (NNE) 1,773 7.8 57.1°
Drops below altitude 10° 11:46:28 10° 71° (ENE) 2,427 8.6 57.1°
Sets 11:49:45 0° 88° (E) 3,433 9.4 57.1°
